STARLINK-32312, 61711

Orbit data source: Space-Track

STARLINK-32312, 61711 is a payload satellite owned by SpaceX/Seattle (US) in LEO that was launched on Wed, 30 Oct 2024 UTC via an FALCON 9 launch vehicle from the Air Force Eastern Test Range (AFETR). Payload-class satellites include a variety of spacecraft equipped with specific instruments for various scientific and technological missions. These include communications satellites like Starlink; space stations such as the ISS; scientific satellites like the Hubble; Earth observation satellites from companies like Planet Labs, Umbra, and HawkEye 360; GPS; miniature CubeSats for education and research; and military/defense satellites.

Loading next visibility...
Identifier
61711, 2024-196E
Orbit
LEO
Country
Flag of USUS
Related business
Manufacturer
SpaceX/Seattle
Mission
Operational Commercial Communications
Bus & Motor
STARLINK V2M, Unknown motor
Mass
730 kg wet, ~700 kg dry
Launch date (UTC)
2024-10-30 (1 year ago)
Launch vehicle
FALCON 9
Launch site
Air Force Eastern Test Range (AFETR)
Object type
Payload
Rocket body
Debris
Shape & HBR
Box + 2 Pan, 17.7 m
Radar Cross Section
33.884 m², Large (>1 m²)

Expand to show TLE details & history
Last TLE update: 16 hours ago

TLE from 16 hours ago
0 STARLINK-32312
1 61711U 24196E   26061.59251402 -.00000053  00000-0  10345-4 0  9997
2 61711  53.1602 134.0413 0001158  72.9208 287.1920 15.30183558 76072
Epoch: 2026-03-02T14:13Z
TLE epoch observation values (Epoch: 2026-03-02T14:13:13.211Z)
Latitude
0.00002°
Longitude
120.35256°
Altitude
475.929 km
Speed
7.629 km/s
True Right ascension
08h 56m 09s
True Declination
0° 00' 00"
Sunlit
Object was in full shadow at epoch
Visualization orbit readout
Latitude
Unknown
Longitude
Unknown
Altitude
Unknown
Speed
Unknown
Apparent Right ascension
Unknown
Apparent Declination
Unknown
Sunlit
N/A
Visualization observer readout
Local Sidereal Time
10:03:59
Azimuth
Unknown
Elevation
Unknown
Doppler factor
Unknown
Orbital elements
Apogee altitude
476.314 km
Perigee altitude
474.727 km
Semi-major axis
6,853.658 km
Eccentricity
0.00012
Inclination
53.1602°
RAAN
134.0413°
Arg. of periapsis
72.9208°
True anomaly
287.17932°
Mean anomaly
287.192°
Eccentric anomaly
287.18566°
Mean motion
3.82525 °/min
Orbital period
94.11 mins
BSTAR
0.000010345
Loading maneuver chart data...
Computing Atmospheric mass density...
Loading historical data...
Loading historical data...
Loading historical data...
Loading historical data...
Loading historical data...
Loading historical data...
Loading historical data...

Documentation

Showing up to 5 results
|